GFSFLT2_prec_cthk_195.txt.gz
RH
57 56 51 50 46 48 48 48 49 51 54 52 48 41 35 33 31 30 31 30 28 27 25 24 23 23 23 23 22 22 23 24
54 52 50 49 49 49 49 48 49 54 57 56 52 45 39 32 31 33 33 31 30 28 26 25 25 25 25 24 25 25 27 29
47 46 47 47 47 47 47 50 52 54 58 58 54 47 39 35 33 34 35 33 31 29 26 26 26 25 23 23 23 23 24 26
43 46 46 45 46 48 50 53 54 55 60 61 57 44 40 36 36 36 36 34 30 27 27 26 24 23 22 22 22 23 23 24
41 41 46 48 51 53 56 57 57 57 59 60 51 43 39 36 38 38 37 31 29 29 27 25 24 24 25 26 26 27 27 27
47 50 52 51 51 53 55 56 57 57 56 53 48 42 38 38 40 40 34 32 31 30 29 28 28 28 28 29 29 30 30 32
48 50 49 48 47 48 50 52 54 54 51 47 42 40 41 42 40 35 34 33 32 32 32 32 33 32 31 32 32 33 35 35
45 46 44 43 44 45 48 49 49 47 45 42 41 41 43 38 35 35 35 34 34 35 37 37 37 37 36 36 36 38 39 39
47 49 50 48 49 50 52 51 51 49 46 46 48 45 39 40 42 43 43 42 40 41 43 43 43 43 44 45 47 46 43 41
49 51 52 52 52 56 57 56 54 53 53 52 47 41 40 41 43 47 50 51 50 51 51 51 51 50 49 50 50 48 47 43
44 50 53 54 55 57 59 58 57 59 56 49 44 43 43 44 46 52 53 53 54 55 56 56 55 53 51 50 49 47 46 45
39 44 50 50 51 55 58 58 58 57 52 48 47 46 47 48 51 53 53 53 54 55 56 57 56 52 49 50 50 48 47 45
42 48 53 52 52 49 49 51 55 51 45 44 44 45 48 51 53 54 55 56 56 59 58 57 54 51 49 52 52 50 48 45
44 54 58 57 60 54 49 50 47 43 42 43 46 46 47 51 54 55 58 60 60 58 55 51 49 51 52 51 49 48 46 44
49 59 69 71 72 65 55 49 50 49 44 41 45 47 50 54 57 59 60 59 56 53 53 51 50 49 49 46 49 48 49 49
61 73 80 85 84 75 68 62 54 51 46 46 46 49 50 50 54 58 58 58 56 53 49 50 52 47 45 38 37 38 42 44
71 83 87 90 92 82 76 73 65 59 54 49 51 50 49 48 47 50 54 53 50 50 47 47 43 36 30 32 32 36 37 33
81 88 97 97 94 88 80 70 67 64 58 55 51 49 48 47 49 52 52 50 49 46 44 39 37 34 29 26 28 27 24 26
95 99 98 97 92 81 74 76 72 69 64 53 52 49 47 52 54 53 54 49 45 43 42 38 38 34 29 29 22 21 25 25
96 96 94 91 81 77 74 80 78 73 66 57 55 51 53 59 59 52 49 52 50 48 47 46 40 35 28 21 18 16 17 21

GFSFLT2_prec_cthk_198.txt.gz
RH
57 59 64 63 57 52 52 53 55 53 52 53 54 50 44 40 34 31 32 33 34 33 30 27 25 24 23 24 24 24 24 25
52 54 56 54 50 50 51 53 54 52 51 55 56 52 47 43 36 33 33 34 34 33 31 29 26 26 26 25 25 25 26 28
49 50 50 49 49 49 50 49 51 52 54 57 60 55 53 44 37 35 36 36 36 34 31 28 28 27 25 23 23 23 24 25
48 50 51 50 48 49 49 50 51 54 58 61 64 59 59 49 39 36 37 38 37 34 29 28 27 25 24 24 24 24 25 26
47 48 48 47 49 50 51 52 54 58 60 62 64 66 56 45 41 38 39 39 38 32 30 29 27 27 27 27 27 27 28 29
46 45 46 48 51 52 55 58 60 62 62 63 65 61 51 46 41 39 39 40 35 32 31 30 31 30 30 30 30 30 30 31
41 43 45 48 52 53 55 55 56 59 59 61 60 54 49 44 41 41 42 37 35 34 33 33 34 34 35 36 37 36 35 34
47 47 48 51 51 52 51 52 54 55 56 56 53 49 46 44 44 45 39 36 36 39 41 40 40 40 40 42 43 43 43 43
46 47 48 50 50 52 53 53 54 54 53 51 51 49 48 50 48 41 39 41 44 45 47 48 48 49 50 52 53 52 51 48
47 49 49 49 51 52 50 52 53 54 54 54 55 56 58 54 46 45 44 44 46 49 51 50 51 53 53 55 55 55 55 52
39 40 45 46 49 49 48 53 55 55 55 54 58 61 53 48 48 48 48 50 53 54 54 51 53 54 55 57 57 56 55 51
36 40 42 49 55 54 53 51 55 58 56 59 56 53 49 48 49 48 49 51 53 53 52 51 52 51 55 59 58 57 54 53
38 39 45 50 57 62 58 55 55 57 57 56 51 47 46 47 48 50 53 54 56 57 55 53 53 54 51 55 54 55 53 54
37 41 48 55 62 67 71 67 64 59 57 53 49 42 39 40 43 47 52 56 59 58 54 50 45 47 49 48 53 56 57 54
36 44 52 56 67 74 78 78 75 69 61 59 54 49 46 44 42 44 47 48 50 53 49 44 43 43 43 44 50 54 55 55
47 54 62 70 79 85 88 89 86 81 76 63 58 54 52 50 47 47 46 47 44 45 43 40 37 37 41 42 44 46 47 47
57 66 74 77 85 91 94 96 94 87 80 74 71 64 58 56 53 48 45 42 38 39 38 38 39 37 36 40 42 43 44 43
66 74 84 91 98 99 98 98 97 93 90 83 75 68 61 57 55 49 43 40 40 41 39 42 37 35 35 38 39 43 43 40
71 81 94 98 96 98 96 98 91 88 91 85 75 69 65 58 52 47 46 44 42 40 39 37 36 37 37 33 34 38 38 37
79 84 91 94 92 91 94 95 92 89 90 84 80 75 68 59 52 54 52 45 42 43 41 43 40 39 40 36 35 36 34 29

GFSFLT2_prec_cthk_204.txt.gz
RH
47 44 45 47 49 51 60 57 58 58 53 56 59 59 57 53 49 46 39 36 35 33 33 34 34 32 29 27 28 30 42 42
47 53 54 52 53 53 52 49 50 51 51 55 59 58 57 56 54 48 42 38 37 35 34 35 35 33 28 28 29 31 39 41
52 54 57 60 59 57 56 56 54 52 53 58 58 58 57 58 57 51 46 44 42 40 37 37 37 34 29 29 31 32 35 37
49 53 58 61 59 61 64 64 60 54 53 56 58 59 61 60 60 58 57 52 47 41 39 40 42 36 31 32 34 33 37 42
46 49 53 56 55 58 61 61 59 54 53 58 60 61 63 61 61 61 57 55 52 45 42 46 48 39 38 38 38 37 42 43
41 45 48 50 52 54 55 56 53 52 53 55 57 61 62 64 63 60 55 57 53 48 45 46 42 35 36 39 41 42 45 43
44 42 43 47 48 50 55 58 58 56 56 59 61 63 64 65 63 57 54 53 51 49 46 47 40 36 37 40 45 50 51 54
42 42 42 45 46 48 51 56 58 59 61 65 66 67 69 70 67 59 55 53 50 50 51 52 44 42 40 44 51 53 52 54
42 43 43 45 47 47 49 50 54 59 61 62 61 60 64 63 61 57 56 52 51 55 56 52 47 47 46 47 52 52 55 54
45 44 43 44 47 47 48 47 46 50 54 56 56 59 60 60 57 54 52 52 53 57 58 53 54 52 54 57 59 59 57 56
47 48 46 46 48 49 50 50 53 53 51 52 53 53 57 55 53 49 48 50 56 56 56 56 55 57 59 62 64 63 59 54
46 50 50 51 50 52 55 55 54 54 58 58 54 54 54 53 55 52 52 55 61 56 56 57 59 61 63 65 64 62 58 50
39 46 54 55 55 54 54 54 56 56 60 62 62 63 65 66 63 61 59 57 58 52 54 59 62 61 64 66 63 58 49 43
39 43 47 41 46 49 54 56 60 62 62 68 74 77 78 74 74 69 63 61 57 52 58 62 61 61 65 64 58 52 46 44
34 37 41 45 49 53 55 58 61 67 72 77 79 83 84 81 77 76 70 67 59 58 61 63 65 62 57 57 56 45 49 45
34 37 38 41 47 53 62 65 68 70 77 88 86 88 85 81 81 76 73 68 64 62 66 64 62 61 58 52 47 46 45 45
33 36 39 40 47 49 59 68 76 79 82 92 88 96 94 91 89 83 79 72 66 64 65 66 68 62 60 51 47 47 44 41
35 36 40 43 48 51 57 68 71 81 86 97 90 96 96 92 90 91 85 76 71 68 67 65 63 67 63 50 49 49 44 42
35 33 36 40 40 45 51 61 73 81 87 86 88 93 94 97 94 89 91 88 79 69 65 67 65 61 51 53 51 46 47 40
38 40 41 41 40 44 52 61 70 80 80 84 92 91 95 97 98 97 94 81 74 74 69 65 60 54 52 47 45 43 39 39

GFSFLT2_prec_cthk_207.txt.gz
RH
42 43 42 42 44 46 49 52 58 63 57 50 57 57 55 55 53 48 46 41 37 36 36 34 33 33 33 29 29 40 51 46
45 42 45 47 47 47 49 52 53 51 54 54 52 56 56 55 54 53 49 44 41 39 40 39 36 36 36 32 30 34 47 48
45 46 47 49 50 50 53 53 54 53 55 55 55 56 55 54 55 55 53 52 51 49 44 43 40 39 39 37 38 43 41 41
47 49 49 55 58 56 56 58 58 61 59 57 57 57 57 56 57 57 55 53 52 53 50 47 45 44 43 41 43 43 44 42
46 47 49 54 57 58 57 59 57 57 58 61 57 58 57 57 58 57 55 54 55 52 52 51 57 52 52 51 43 44 47 46
43 44 45 49 52 53 53 55 57 58 59 56 54 59 59 62 63 61 58 58 53 52 51 61 58 57 55 48 46 48 50 44
38 43 43 44 45 47 47 50 57 60 56 57 56 58 58 61 63 65 64 60 56 53 53 56 56 54 53 48 49 52 51 49
39 39 40 44 45 48 49 51 50 53 59 59 59 62 63 65 62 64 64 62 56 55 56 56 56 56 55 49 48 51 55 53
44 46 47 49 50 50 51 49 52 55 56 57 57 60 63 63 61 59 62 60 54 55 56 58 60 61 58 51 50 53 58 58
51 49 52 52 51 52 52 51 50 53 55 54 52 53 58 59 57 59 60 56 54 54 54 60 64 66 62 58 55 59 61 64
55 51 54 56 57 57 56 53 52 53 55 55 53 53 53 52 51 53 57 57 53 53 54 62 65 68 62 62 63 61 60 64
55 54 54 58 60 61 60 60 57 58 60 59 60 58 55 55 56 60 59 53 52 55 58 63 68 69 65 68 67 67 66 67
53 48 49 51 53 56 60 63 65 62 60 62 61 59 59 56 57 62 63 58 59 58 61 69 74 75 68 72 71 71 71 69
45 41 41 46 49 49 49 52 54 56 56 57 61 64 63 60 59 59 64 64 66 66 66 72 79 74 72 72 71 73 73 70
34 34 35 38 43 45 47 47 55 60 60 60 63 67 68 67 64 65 71 73 73 74 73 76 78 72 71 69 75 73 75 73
35 33 35 38 39 40 42 46 49 54 65 66 65 70 75 76 75 79 79 83 77 78 77 82 80 74 74 75 79 79 74 74
31 30 30 31 33 36 41 46 46 50 53 63 64 72 81 91 82 86 89 91 89 85 84 83 80 77 79 80 79 77 74 70
35 34 32 31 31 33 35 38 42 47 54 60 67 66 89 82 87 94 93 92 92 89 85 86 85 85 84 84 77 76 71 65
37 34 33 31 31 31 31 34 40 46 52 61 64 73 76 80 90 88 95 94 97 94 92 92 87 88 86 83 75 74 72 67
47 40 37 34 34 35 37 41 44 50 60 69 68 73 84 86 94 98 95 98 97 95 94 93 88 85 86 83 79 72 72 66

GFSFLT2_prec_cthk_210.txt.gz
RH
33 33 32 32 34 35 36 38 41 44 47 49 50 49 51 51 51 48 45 41 38 37 36 36 37 37 34 36 40 44 43 38
32 29 29 32 35 38 40 41 42 43 45 46 49 52 53 53 53 51 48 44 42 39 41 44 41 41 39 37 49 55 53 46
32 33 34 33 34 37 39 42 43 44 46 48 51 51 52 51 51 52 50 46 42 42 41 44 46 43 42 42 46 54 51 44
36 36 38 37 40 40 41 41 45 47 49 50 51 53 55 53 52 50 49 48 45 43 42 42 44 49 49 49 53 52 47 44
36 38 40 39 41 44 47 48 50 51 53 53 56 57 56 53 53 53 51 49 47 47 46 44 45 46 50 56 57 48 48 43
39 42 42 44 46 48 51 51 50 51 52 56 56 58 56 54 54 55 54 53 51 50 49 49 50 53 55 58 54 52 50 44
44 44 42 44 46 48 49 50 51 51 51 56 58 57 54 56 55 57 56 58 57 55 51 49 52 54 58 59 54 54 56 49
40 46 45 46 47 46 48 50 50 50 56 60 61 61 60 58 60 61 59 58 57 59 52 50 48 50 56 59 57 57 57 52
39 43 48 51 51 50 50 51 52 54 54 54 58 62 59 56 62 60 61 58 56 52 51 47 48 49 54 57 62 59 59 56
43 45 48 50 54 55 55 53 53 53 52 55 55 60 63 59 58 57 56 57 50 49 52 50 50 51 54 56 59 63 60 58
53 52 50 54 56 60 61 61 60 60 58 55 58 60 60 61 60 61 60 54 51 55 56 52 53 53 57 59 59 63 62 57
61 62 57 55 57 59 62 65 67 67 64 62 64 66 66 66 65 64 63 57 53 57 56 56 56 58 62 64 67 68 64 59
51 55 52 47 49 51 55 61 61 61 61 62 62 64 64 63 65 62 62 61 60 59 59 62 64 65 70 71 73 73 68 63
48 45 46 44 43 50 50 53 57 54 55 56 56 55 58 61 66 65 65 67 66 61 61 64 68 73 74 77 84 84 78 68
40 41 39 40 39 39 40 43 45 46 48 53 55 58 64 63 66 71 70 70 73 68 65 68 72 77 78 78 86 86 82 76
33 33 34 34 35 38 40 40 40 44 47 52 54 55 52 59 71 71 73 75 79 78 78 77 78 83 84 84 84 79 81 79
34 35 36 36 35 35 36 37 37 39 41 44 50 52 54 62 59 84 81 83 92 84 93 93 90 96 93 93 91 88 85 84
41 41 41 39 38 35 33 33 34 35 35 41 48 51 58 60 69 77 80 82 90 93 98 95 96 98 97 96 94 95 92 89
46 45 43 41 37 35 33 32 30 33 38 43 49 52 59 64 72 73 84 90 85 92 98 98 97 98 98 96 96 97 96 95
46 44 41 39 40 33 33 34 36 39 43 52 60 61 66 71 73 76 79 80 83 86 93 96 98 98 97 99 98 97 96 96